Location: Aula-Vintri
(58.3875°N, 22.4322°E)
Time: 00:14:17
(UTC+00:00)

SL-24 R/B - RUBIN 2 - Pass Details

Date: 13 October 2019
Orbit: 578 x 1017 km, 64.6° (Epoch: 21 November)

Event Time Altitude Azimuth Distance (km) Brightness Sun altitude
Rises 16:32:55 0° 216° (SW) 3,027 7.7 -8.8°
Reaches altitude 10° 16:35:08 10° 213° (SSW) 2,174 6.8 -9.1°
Maximum altitude 16:40:01 61° 134° (SE) 873 4.1 -9.7°
Drops below altitude 10° 16:45:37 10° 55° (NE) 2,478 6.2 -10.5°
Enters shadow 16:46:32 - 54° (NE) 2,823 6.5 -10.6°
